Location: ???????
(55.4362°N, 38.1183°E)
Time: 16:21:33
(UTC+00:00)

FENGYUN 1C DEB - Pass Details

Date: 06 February 2022
Orbit: 807 x 954 km, 100.9° (Epoch: 15 May)

Event Time Altitude Azimuth Distance (km) Brightness Sun altitude
Rises 01:10:01 0° 17° (NNE) 3,441 ? -33.9°
Reaches altitude 10° 01:12:32 10° 9° (N) 2,524 ? -33.6°
Enters shadow 01:14:36 21° 355° (N) 1,875 ? -33.3°
